Satellite: METEOR-M Catalog number: 35865 Epoch time: 11090.60211308 Element set: 237 Inclination: 098.7141 deg RA of node: 146.7047 deg Eccentricity: 0.0001607 Arg of perigee: 259.2493 deg Mean anomaly: 100.8504 deg Mean motion: 14.21835823 rev/day Decay rate: 1.76e-06 rev/day^2 Epoch rev: 7956 Checksum: 284
Satellite: RS-38 Catalog number: 35869 Epoch time: 11090.61155990 Element set: 246 Inclination: 098.7120 deg RA of node: 146.7546 deg Eccentricity: 0.0003850 Arg of perigee: 255.1660 deg Mean anomaly: 104.9067 deg Mean motion: 14.22004209 rev/day Decay rate: 1.77e-06 rev/day^2 Epoch rev: 7957 Checksum: 306
/EX